Dewpoint
64 65 65 64 63 61 58 58 57 59 58 58 56 55 55 54 55 55 53 50 50 53 53 50 50 53 46 46 46 45 48 52 53 45 49 50 55 51 50 47 42 46 45
64 64 65 65 63 61 59 57 57 58 59 57 56 55 55 54 55 56 55 51 52 52 52 52 51 46 55 56 48 55 52 52 53 52 52 44 50 49 48 47 42 40 42
64 64 65 64 64 62 61 61 58 57 59 58 56 56 55 55 54 53 54 52 52 50 53 53 52 54 55 52 53 50 50 56 52 50 42 36 37 40 42 48 46 51 44
61 64 63 64 63 62 62 61 59 59 58 58 58 56 55 55 54 53 53 53 53 53 53 53 52 52 53 53 52 54 56 52 49 41 36 33 35 44 39 38 40 45 46
59 62 64 65 64 64 62 61 59 59 59 59 58 57 57 55 52 53 53 51 52 52 53 50 52 53 52 52 49 52 54 48 42 38 32 34 35 38 41 41 43 47 44
60 61 63 64 63 63 62 61 61 60 58 57 57 57 56 53 49 50 52 53 52 52 52 51 53 53 52 51 52 45 44 44 43 35 35 37 45 40 43 45 43 44 42
55 57 60 62 62 62 62 62 61 59 59 58 56 56 56 56 48 49 51 52 51 51 51 52 52 45 52 52 48 45 44 45 44 43 43 45 42 44 45 44 45 47 44
51 54 57 60 61 61 61 61 61 62 61 57 56 56 56 55 47 47 49 52 52 53 53 54 54 53 52 50 49 47 48 46 46 42 49 44 43 44 44 43 45 46 44
48 50 52 54 57 61 61 61 62 61 59 57 58 57 56 54 47 47 50 53 53 54 53 54 53 52 49 46 49 48 45 47 47 48 43 44 43 44 44 42 43 46 39
48 48 50 53 55 57 60 62 62 61 59 58 57 56 55 54 46 46 50 53 52 50 53 54 50 50 46 45 49 46 44 41 42 45 44 44 45 46 46 47 41 42 41
50 49 50 53 55 56 58 60 62 60 59 58 57 56 55 53 50 46 47 53 50 48 49 50 55 46 45 42 42 46 43 44 44 39 41 42 41 44 43 47 45 39 43
46 48 50 52 51 52 57 61 61 61 59 57 55 53 54 53 50 46 46 46 49 50 51 53 53 45 43 40 40 39 41 40 36 34 35 40 38 39 38 39 44 46 44
45 46 47 51 52 53 56 57 56 61 59 55 53 52 52 53 52 47 46 45 45 48 49 47 44 42 42 40 39 40 40 38 36 36 38 38 39 39 42 43 46 48 48
48 47 47 49 54 55 50 51 52 56 58 55 53 52 52 52 52 52 51 50 46 47 48 46 41 38 38 39 39 41 39 37 38 37 38 38 38 41 37 37 36 40 38
48 46 48 44 50 48 51 54 54 56 56 56 54 53 52 52 51 50 49 48 48 46 48 46 39 37 36 36 37 38 40 41 40 41 38 39 38 38 36 37 36 37 31
47 44 41 40 39 36 41 49 42 43 42 43 47 51 51 48 46 45 41 42 42 40 43 37 36 34 32 32 31 31 31 33 32 36 36 36 36 34 37 35 32 30 30
50 50 40 38 37 39 40 42 54 48 41 42 43 44 46 46 42 40 38 36 36 35 33 32 33 33 32 31 30 29 28 30 36 32 34 35 36 35 31 30 29 28 28
45 41 40 37 35 33 35 40 52 53 53 49 43 45 41 39 38 37 35 35 33 32 32 32 32 31 30 30 28 27 28 31 34 37 35 35 33 30 28 28 28 30 29
41 38 39 37 34 34 40 46 46 53 53 50 47 41 37 36 35 35 35 34 35 35 34 33 29 29 28 28 27 27 32 33 34 34 34 31 29 28 30 33 33 32 30
43 41 39 37 34 31 35 48 46 53 52 48 49 43 37 35 32 31 32 34 35 31 29 28 27 27 27 26 28 31 32 32 32 31 29 29 31 35 35 35 35 34 33
41 41 38 36 34 36 50 53 52 51 49 48 47 42 34 37 32 33 34 36 32 28 28 28 25 24 23 28 30 29 31 31 29 28 30 34 36 35 35 34 34 35 36
42 40 38 36 44 47 51 51 51 49 46 45 43 41 34 34 36 39 36 33 29 27 26 27 23 26 30 30 31 31 30 29 30 31 32 35 35 33 33 32 34 35 36
42 40 37 37 48 49 51 49 47 46 45 45 45 44 43 40 40 37 34 32 29 28 27 28 31 30 31 34 33 30 30 32 32 32 35 35 35 34 33 33 34 34 37
41 40 37 46 49 49 48 47 46 44 46 46 45 41 38 41 39 36 33 31 30 29 30 33 33 32 34 35 33 31 31 30 32 35 35 35 34 34 34 34 35 35 37
39 38 38 47 52 50 47 48 47 47 46 43 40 38 38 37 37 33 31 29 28 29 33 34 34 34 34 36 35 32 30 31 35 32 35 35 34 36 35 35 36 37 37
40 45 52 52 49 48 47 47 47 44 41 39 38 37 38 36 32 29 28 28 28 32 33 33 34 34 33 35 32 30 31 32 33 32 35 36 35 35 35 35 34 35 37
Lifted_Index
-3 -3 -3 -2 -2 -2 -2 -1 -0 2 3 4 4 4 4 5 6 6 6 7 7 7 7 7 7 7 7 7 7 6 6 6 6 6 6 5 5 4 4 4 4 4 4
-3 -3 -3 -2 -2 -1 -1 -1 -0 1 3 3 4 4 4 5 5 5 6 6 6 7 7 7 7 7 7 6 6 6 6 6 6 6 6 6 5 5 5 4 4 4 4
-3 -3 -3 -2 -2 -2 -1 -1 -0 1 2 2 3 3 3 4 5 5 6 6 6 7 7 7 7 6 6 6 6 6 6 5 6 6 7 7 6 6 5 5 4 4 4
-3 -3 -3 -3 -2 -2 -2 -1 -1 -0 1 1 2 2 3 4 5 6 6 7 7 8 7 7 6 6 6 6 6 6 6 6 6 7 7 7 6 6 5 5 5 4 4
-3 -3 -3 -3 -3 -3 -2 -2 -2 -1 -0 0 1 2 2 3 4 5 6 7 8 8 8 7 6 6 6 6 7 7 6 6 7 7 7 7 6 6 5 5 5 4 4
-2 -3 -3 -4 -4 -3 -2 -2 -2 -2 -1 -1 0 1 2 3 4 5 6 7 8 8 8 7 6 6 6 7 7 7 7 7 8 8 7 7 6 6 6 5 5 4 4
-2 -2 -3 -4 -4 -3 -3 -2 -2 -2 -2 -1 -1 -0 1 2 4 5 6 7 7 8 8 7 6 6 6 6 7 7 7 7 8 8 7 6 7 7 7 6 5 4 4
-0 -1 -2 -3 -4 -3 -3 -2 -2 -2 -2 -2 -2 -1 0 1 3 4 5 6 7 7 7 6 6 6 6 6 6 7 7 7 7 7 7 7 7 8 7 7 6 5 4
1 0 -1 -2 -3 -3 -3 -3 -2 -2 -2 -1 -2 -1 -0 1 2 4 5 6 7 7 6 5 5 6 6 6 6 7 7 7 7 7 7 8 8 8 8 7 6 5 5
1 1 0 -1 -2 -2 -3 -3 -3 -2 -1 -1 -1 -1 -0 1 3 4 5 6 7 6 6 5 5 6 6 6 6 7 7 7 7 8 8 8 8 7 7 7 6 6 6
1 1 0 -0 -1 -1 -2 -3 -3 -2 -1 -1 -1 -1 -0 1 3 5 6 6 7 6 6 5 5 5 6 6 7 8 8 8 8 8 8 8 7 7 7 6 6 6 6
2 1 1 0 0 -0 -1 -2 -2 -2 -1 -1 -0 -0 0 1 3 5 5 6 7 6 6 6 5 5 6 8 9 9 9 9 8 8 8 7 7 7 7 6 6 6 6
3 2 2 1 1 0 -0 -1 -1 -2 -1 -0 -0 -0 0 2 4 5 5 6 7 7 6 6 5 6 8 9 10 9 9 9 8 8 7 7 6 6 6 6 6 6 6
3 3 2 2 1 1 1 -0 -0 -1 -0 -0 -0 -0 1 2 4 5 6 7 7 7 6 6 6 7 9 9 9 8 8 8 7 7 7 6 6 6 6 7 7 7 7
2 2 3 3 3 2 2 0 0 0 0 0 0 1 1 3 4 5 6 7 7 7 6 6 7 8 8 8 7 7 8 7 7 7 6 7 7 7 7 7 7 7 8
2 2 3 3 4 3 3 1 0 0 0 0 0 1 2 4 5 6 6 6 6 6 7 7 7 7 7 7 7 7 8 7 7 7 7 7 7 7 7 8 8 8 8
1 2 2 3 3 4 3 2 0 0 0 0 1 2 3 4 5 6 6 6 7 7 8 8 7 7 7 7 8 8 8 8 8 7 7 8 8 8 8 8 9 9 9
1 1 1 2 3 3 2 1 -0 -0 0 1 2 3 4 5 5 6 6 7 8 8 8 8 8 7 7 8 8 8 8 8 8 8 8 8 9 9 9 9 9 9 9
-0 -0 0 1 1 2 1 -0 -1 -0 0 1 2 4 4 5 5 6 7 8 9 8 8 8 8 8 8 9 8 8 8 8 8 9 9 10 10 11 11 10 10 10 10
-1 -1 -1 -1 -0 0 -0 -1 -1 -0 0 1 2 4 4 5 6 7 8 9 9 8 8 8 8 9 9 9 8 8 8 9 9 10 10 11 11 12 12 12 12 11 11
-2 -2 -2 -2 -1 -1 -2 -2 -1 0 0 0 2 4 5 6 7 8 8 9 8 9 9 9 9 9 9 9 9 9 9 9 10 11 11 12 12 13 13 13 13 12 12
-2 -2 -2 -2 -2 -2 -2 -1 0 1 0 1 2 4 6 7 7 8 8 9 9 10 10 10 9 9 9 9 9 10 10 11 11 12 12 12 13 14 14 14 14 13 13
-2 -2 -2 -2 -3 -2 -1 0 1 1 1 2 4 6 7 7 8 8 8 9 10 10 10 10 9 9 9 10 10 11 11 12 12 13 13 13 13 14 14 14 14 14 13
-2 -2 -2 -2 -3 -1 0 2 2 3 3 4 6 7 7 8 8 8 9 9 10 10 10 9 9 10 10 10 11 12 13 13 13 13 13 14 14 14 14 14 14 13 13
-2 -2 -1 -2 -2 -0 1 2 4 4 5 6 7 8 8 8 8 8 9 10 10 10 9 9 10 10 11 11 12 14 15 14 13 14 14 14 15 14 14 14 13 13 12
-2 -2 -1 -1 -1 0 2 3 4 5 6 6 7 8 8 8 8 9 9 10 10 10 9 10 10 10 11 12 14 15 15 14 14 14 15 15 15 14 14 13 13 12 12